RH
5 5 4 3 4 5 7 8 6 5 4 2 2 2 2 3 4 4 4 5 7 8 9 20 18 22 30 40 48 61 67 74 77 71 82 86 75 79 71 73 73 73 74
4 3 3 3 4 6 8 8 6 5 2 2 2 2 3 4 4 6 6 8 10 10 16 17 24 28 34 45 58 58 60 74 77 73 78 80 65 70 70 73 74 76 76
4 4 4 4 5 8 9 8 6 3 2 2 3 4 5 4 7 7 7 7 8 30 39 37 26 31 39 49 65 68 60 71 74 73 77 69 71 65 70 73 73 73 76
5 5 4 5 6 8 9 7 5 3 2 3 3 4 3 4 6 7 13 15 24 31 40 52 65 44 51 58 59 76 71 74 75 72 76 72 64 71 79 78 75 75 77
6 6 5 6 7 9 9 8 5 3 3 3 4 3 3 4 5 12 20 26 26 20 40 49 53 61 48 75 75 81 77 80 77 69 74 73 68 72 78 82 82 85 82
7 8 8 8 9 10 9 8 6 3 3 3 4 4 4 4 4 8 13 18 22 33 46 50 52 60 66 55 79 93 76 85 80 72 68 68 73 68 78 84 85 87 88
10 11 11 10 11 10 10 9 7 5 3 3 4 5 4 3 6 14 13 17 27 29 37 55 53 55 71 67 82 97 78 73 82 71 66 67 73 78 82 82 79 82 83
14 12 11 12 12 11 11 10 9 6 4 3 4 5 6 3 6 4 6 19 38 52 59 69 65 75 69 79 90 94 78 66 78 68 69 71 81 86 85 90 90 90 92
17 14 12 12 12 12 12 11 9 7 5 4 4 5 7 4 2 14 4 7 29 47 70 90 94 78 74 88 93 96 94 69 65 69 77 82 81 80 93 95 96 96 96
15 14 14 12 12 12 13 13 11 8 6 4 4 4 7 8 3 2 2 5 25 46 64 90 84 80 77 82 93 97 96 76 64 69 82 87 96 96 96 97 98 97 96
23 22 22 19 15 14 14 14 12 10 7 5 4 4 6 8 6 3 2 4 19 45 55 91 94 92 89 76 90 96 96 79 76 75 86 97 96 96 96 96 96 96 96
27 24 24 19 18 18 16 16 14 11 8 7 5 4 5 7 8 6 2 2 18 50 58 84 91 87 89 96 90 96 97 87 76 82 90 89 87 99 97 96 95 95 94
16 17 18 19 18 15 12 12 12 11 9 7 6 5 5 6 8 9 4 2 10 43 50 59 94 89 83 96 95 96 93 88 84 93 94 93 93 93 99 99 97 96 96
13 15 15 15 16 17 17 14 11 10 9 8 7 6 5 5 6 8 9 2 3 22 54 50 71 90 88 93 93 89 86 86 92 95 97 91 97 94 95 100 99 98 97
8 11 14 12 12 15 15 17 14 10 8 8 7 7 6 5 6 7 10 5 2 32 67 77 74 91 92 95 96 96 87 89 87 95 95 98 98 97 96 98 99 100 98
9 7 8 13 11 12 13 13 15 11 9 8 8 7 6 6 6 6 9 9 4 37 86 82 96 93 95 95 93 96 98 95 92 84 96 96 96 95 100 97 97 97 97
18 15 11 8 11 14 13 13 13 14 10 9 10 8 7 7 6 6 6 11 5 49 68 83 97 98 94 92 88 86 80 89 90 86 90 89 95 95 100 96 94 89 92
16 22 21 18 13 10 14 14 14 13 14 11 12 9 8 8 8 8 7 8 8 22 63 97 99 97 89 83 71 72 81 88 81 81 83 98 97 92 96 95 91 96 94
11 12 21 22 22 20 11 14 12 11 11 12 11 10 10 9 9 10 8 9 10 10 74 51 93 96 86 98 97 91 79 88 94 91 96 97 96 96 97 93 93 94 94
19 13 15 18 18 22 23 13 15 10 10 10 10 10 10 10 10 11 10 8 10 8 50 89 78 97 96 94 97 96 97 100 97 96 94 94 94 97 96 95 93 94 96
19 19 18 18 17 17 21 24 15 19 11 12 12 11 11 12 13 11 11 11 10 10 6 78 75 96 96 96 95 96 96 98 99 96 96 98 94 94 96 96 97 96 96
20 20 19 21 21 20 22 23 23 18 22 14 14 12 12 13 15 15 13 13 10 11 9 7 84 96 95 96 93 93 92 90 98 97 96 96 96 96 96 97 96 96 97
28 24 24 24 28 24 20 24 27 24 20 24 16 15 16 18 18 18 17 14 15 11 13 9 6 26 68 97 94 92 95 97 95 96 97 97 96 97 96 96 95 95 94
51 34 29 29 36 38 30 24 30 28 23 26 28 21 21 18 18 18 19 17 17 17 13 14 10 7 7 73 98 97 96 96 96 97 97 96 97 96 97 96 96 95 95
99 74 50 47 44 45 39 34 28 32 32 29 36 30 24 22 21 18 17 18 18 21 18 16 14 14 8 17 98 98 97 96 97 97 97 96 97 96 96 96 97 97 97
100 97 85 82 64 57 50 46 46 40 60 29 33 35 33 29 27 23 22 22 19 19 20 19 16 14 14 11 14 85 88 96 96 97 97 96 97 96 96 96 95 93 94
Wind_Speed
19 18 20 18 18 17 17 16 15 15 17 16 15 15 16 18 19 20 19 19 19 19 18 18 20 18 18 22 24 24 22 21 20 18 17 16 15 16 16 16 16 16 15
21 21 20 19 19 18 17 16 16 17 16 16 17 17 18 20 20 21 20 19 21 21 20 20 21 20 20 24 23 24 25 22 21 18 17 16 16 16 16 16 16 16 17
22 21 21 20 20 19 18 18 17 16 15 17 18 17 19 20 21 21 20 20 21 21 21 22 22 22 23 24 23 24 25 24 21 18 16 16 17 17 17 16 17 17 16
22 20 22 22 21 20 20 20 18 17 16 18 17 18 18 19 20 19 19 20 20 19 21 21 22 25 26 26 27 26 26 24 22 18 16 17 17 17 18 17 18 17 17
22 22 23 23 22 21 21 21 19 18 18 18 17 17 15 16 17 18 19 18 19 20 21 22 23 25 29 28 28 28 26 24 22 19 18 17 19 19 19 18 17 18 18
23 23 25 23 23 23 23 23 20 19 20 19 18 16 15 15 16 16 17 17 19 20 21 24 24 27 30 33 32 30 28 24 23 20 19 20 21 22 21 20 20 18 17
26 24 25 24 25 26 25 24 22 21 22 20 19 18 14 15 15 16 18 18 19 21 23 25 25 29 32 33 34 31 31 25 23 22 23 23 23 23 22 21 21 20 19
27 26 27 27 27 28 27 26 23 23 23 22 21 19 17 17 16 17 16 18 18 18 19 25 27 31 33 35 40 32 30 27 24 24 24 25 24 23 22 22 23 23 22
31 28 29 29 30 30 29 27 26 25 25 24 22 19 20 18 17 19 18 16 17 20 20 18 23 28 29 36 34 29 30 28 26 25 26 23 23 32 28 25 23 23 23
35 34 32 33 31 33 31 29 29 27 27 26 24 22 21 20 18 20 18 14 15 18 20 16 16 23 29 26 27 31 26 29 28 27 26 22 11 31 27 29 25 23 23
32 33 34 34 35 35 32 31 31 30 29 28 26 23 24 23 19 19 19 15 15 18 19 15 13 17 22 31 32 27 31 30 29 28 28 25 28 14 24 21 17 19 21
37 35 35 34 35 36 34 34 34 33 31 29 28 26 27 25 21 20 19 16 13 16 17 16 14 17 22 23 29 32 33 30 29 30 30 27 26 28 30 23 25 24 24
39 38 39 38 37 36 36 37 37 35 34 32 30 26 27 28 23 22 19 18 14 16 18 17 15 22 21 22 34 37 32 33 29 27 25 27 29 28 29 26 27 27 24
39 38 37 39 39 38 38 39 39 37 36 34 31 29 28 29 26 23 20 19 18 17 19 21 20 16 24 24 31 37 35 33 32 29 26 26 26 23 23 26 25 24 23
44 43 41 41 41 39 38 38 38 39 38 36 33 31 28 30 27 25 21 21 20 16 19 23 22 17 34 32 30 39 35 33 36 34 30 30 25 22 22 27 30 26 24
50 46 43 43 43 41 40 38 38 39 39 38 35 33 30 30 29 27 22 21 21 15 12 20 21 19 29 34 31 37 35 34 38 36 38 35 34 28 28 34 29 27 25
53 51 48 45 45 45 43 41 38 39 39 39 37 34 32 31 30 28 24 20 20 16 10 23 28 31 30 30 28 28 34 33 32 33 42 37 33 31 33 36 30 27 27
53 52 53 51 48 47 46 43 41 42 42 41 39 36 35 32 30 28 25 22 20 15 6 25 30 33 31 33 34 34 35 33 31 32 35 38 34 35 34 28 29 27 23
58 55 52 52 52 50 48 48 44 43 42 41 41 38 36 33 32 29 26 23 21 18 20 17 23 29 31 27 26 24 26 28 31 33 33 36 37 34 34 34 30 30 29
62 61 57 53 51 52 52 49 49 45 44 42 40 39 37 35 33 31 27 26 25 21 18 22 16 31 30 30 30 27 31 35 37 39 39 35 39 40 37 35 35 37 35
72 67 65 60 56 53 53 53 51 48 47 43 42 41 39 36 34 33 30 28 28 24 19 21 20 29 27 26 31 33 32 37 43 46 42 40 40 41 36 36 40 40 40
76 74 70 65 62 58 56 52 53 52 51 49 46 45 43 39 36 34 33 30 29 29 24 21 24 23 28 30 29 35 40 35 38 48 47 41 39 41 41 42 41 37 39
75 74 68 69 66 64 62 58 56 55 55 54 50 47 45 40 38 36 35 34 30 31 30 27 24 26 30 41 37 35 40 39 40 45 45 45 45 47 48 46 45 43 40
66 69 68 69 69 69 67 65 63 59 57 56 52 50 47 45 43 40 38 36 36 33 33 32 31 29 31 35 40 44 40 41 41 47 52 46 46 48 47 47 46 46 45
70 67 66 65 65 69 71 69 67 62 61 60 56 54 51 49 47 45 42 40 39 37 36 36 36 33 30 29 37 37 43 47 43 44 46 50 52 50 49 50 48 47 48
68 70 73 73 71 69 68 70 71 69 64 62 61 58 54 52 51 49 46 43 42 42 40 38 37 36 33 31 33 34 30 29 31 34 42 49 55 52 50 47 46 48 50
Wind_Direction
236 237 239 238 237 239 248 255 259 262 272 271 273 277 277 276 273 270 265 262 254 252 252 248 245 241 229 228 228 229 228 224 223 219 217 210 200 194 196 197 197 198 198
237 236 239 239 238 241 246 255 257 265 266 267 273 272 274 275 272 267 262 260 257 254 255 247 242 238 234 234 230 230 228 226 224 218 215 210 204 200 200 201 203 203 204
240 238 239 238 240 242 247 254 257 263 263 270 271 272 277 275 271 265 259 254 252 251 254 253 246 241 235 234 231 229 227 227 224 217 214 211 208 206 203 201 205 209 209
249 246 245 243 241 244 248 253 258 259 260 267 274 280 276 272 266 262 252 249 249 255 260 256 250 243 239 232 227 227 226 224 225 217 211 210 211 212 209 203 204 208 212
256 250 249 249 246 245 248 254 258 260 262 267 276 275 273 272 267 260 251 252 255 260 260 256 255 244 236 235 229 217 223 219 220 218 214 210 211 213 215 207 207 205 210
255 253 251 248 247 247 250 255 256 259 259 265 275 267 273 273 264 253 256 260 261 265 263 254 256 247 239 235 232 220 215 216 215 216 217 216 214 214 213 210 210 210 211
254 251 251 250 247 249 252 253 256 258 256 261 270 265 274 270 261 258 259 270 271 271 268 253 249 246 241 240 233 230 209 210 211 213 217 219 220 219 217 215 214 215 212
259 255 252 249 250 250 252 254 256 257 257 257 263 264 269 263 255 266 266 270 275 270 263 258 252 251 240 241 231 209 206 206 208 213 217 222 223 223 221 218 216 215 213
259 257 255 249 249 249 252 255 257 255 255 254 257 264 262 266 259 259 268 270 283 271 274 265 248 243 248 240 240 208 205 201 208 212 219 225 232 220 212 215 215 216 209
253 252 249 248 247 247 250 252 255 255 255 254 255 259 263 267 262 263 270 271 286 273 271 258 249 236 236 237 234 214 208 202 208 212 218 217 230 201 199 205 214 189 195
256 257 257 250 245 247 249 252 252 253 252 253 253 256 259 261 267 264 264 267 284 273 270 260 262 243 234 235 231 216 210 199 204 208 216 208 202 189 175 185 185 199 193
256 256 259 257 254 252 250 251 251 251 250 250 250 251 255 259 264 268 264 262 276 267 266 249 262 249 237 228 220 196 206 196 204 208 215 217 221 227 235 232 232 225 225
263 261 258 257 256 255 254 252 251 249 251 247 247 248 254 257 258 266 265 265 262 265 254 246 235 240 217 214 182 190 193 191 193 205 217 218 220 225 233 239 234 234 233
257 260 258 256 253 250 251 251 251 249 249 248 245 245 249 254 256 257 264 270 255 262 256 242 240 239 211 209 202 193 196 188 192 203 192 201 207 218 229 242 226 229 236
251 251 252 253 253 251 248 247 249 249 248 246 243 244 245 250 253 255 259 263 264 255 260 246 230 238 213 194 191 191 197 203 201 191 198 202 216 226 236 222 221 222 221
257 256 251 248 250 253 252 248 245 245 245 244 242 242 244 247 250 251 248 260 263 255 260 210 208 214 189 186 188 193 199 202 202 213 213 223 225 232 226 213 215 225 232
255 254 255 255 252 253 254 252 244 243 245 244 244 241 241 243 247 251 245 251 259 236 268 210 196 184 189 194 198 205 206 205 214 216 217 225 220 233 217 219 222 227 223
255 252 252 252 251 252 251 252 249 243 241 243 244 241 239 241 245 249 248 246 258 244 209 209 195 195 203 199 200 206 209 212 211 210 213 212 228 215 213 212 216 220 215
251 254 250 252 253 251 252 251 248 246 243 241 243 241 238 237 241 244 245 243 254 243 225 221 230 205 204 205 209 220 216 209 212 211 212 214 218 210 205 216 227 232 233
246 248 250 248 249 252 252 250 252 247 244 241 241 241 239 237 237 241 238 238 243 238 230 223 238 217 202 207 210 216 214 211 212 211 206 210 212 215 219 226 233 238 238
243 244 245 245 244 243 248 246 246 249 247 242 240 240 239 237 237 239 239 238 238 241 233 225 224 214 208 215 216 216 220 221 224 219 220 218 220 223 223 229 235 238 239
241 240 240 241 242 242 242 244 244 243 246 245 239 240 241 238 236 237 239 238 237 242 236 228 224 223 237 217 236 233 231 222 223 221 220 217 218 218 224 231 236 247 250
239 237 235 237 238 238 240 240 240 241 240 243 243 240 241 240 238 238 238 239 235 237 241 236 229 231 229 231 243 240 238 233 229 221 222 229 236 238 240 238 242 247 249
235 234 232 230 229 233 234 236 237 238 239 239 242 241 239 238 238 237 236 235 239 234 237 240 237 231 236 236 231 233 238 235 231 230 233 236 237 240 244 246 251 251 251
234 230 228 225 227 228 232 232 236 236 238 238 236 239 239 238 237 237 236 233 235 235 234 235 238 238 233 234 233 236 238 231 234 237 236 241 242 243 243 248 252 256 259
237 233 230 231 231 229 229 232 232 235 231 235 236 233 235 237 236 237 236 235 232 235 235 234 235 237 236 229 231 236 228 236 242 247 246 246 242 246 250 251 254 256 257